Regional Weather Roundup
Issued by NWS San Diego, CA

Home | Current Version | Previous Version | Text Only | Print | Product List | Glossary On
Versions: 1 2 3 4 5 6 7 8 9 10 11 12 13 14 15 16 17 18 19 20 21 22 23 24 25 26 27
000
ASUS46 KSGX 111711
RWRSGX

SAN DIEGO HOURLY WEATHER ROUNDUP
NATIONAL WEATHER SERVICE SAN DIEGO CA
900 AM PST MON DEC 11 2017

NOTE: "FAIR" INDICATES FEW OR NO CLOUDS BELOW 12,000 FEET WITH NO
SIGNIFICANT WEATHER AND/OR OBSTRUCTIONS TO VISIBILITY.

CAZ042-043-060-061-PZZ750-775-111800-

GREATER SAN DIEGO AREA

CITY           SKY/WX    TMP DP  RH WIND       PRES   REMARKS
SAN DIEGO AP   MOSUNNY   67  24  19 N3        30.21R
NATIONAL CITY    N/A     66  30  26 CALM      30.22R
CHULA VISTA      N/A     63  32  31 CALM      30.11R
IMPERIAL BEACH PTSUNNY   71  16  12 N9        30.20R
BROWN FIELD    SUNNY     72  10   9 E5        30.21R
MIRAMAR MCAS   SUNNY     77  11   8 W3        30.20R
MONTGOMERY FLD SUNNY     76  14   9 CALM      30.21R
GILLESPIE FLD  SUNNY     55  21  26 CALM      30.23R

$$

NORTH SAN DIEGO COUNTY

CITY           SKY/WX    TMP DP  RH WIND       PRES   REMARKS
CAMP PENDLETON PTSUNNY   64  22  20 CALM      30.21R
OCEANSIDE AP   SUNNY     65  25  22 NE6       30.20R
OCEANSIDE HBR    N/A     64  29  26 NE7       30.22R
VISTA            N/A     65  24  20 CALM      30.18R
CARLSBAD       SUNNY     72  23  16 CALM      30.20R
DEL MAR          N/A     67  23  19 CALM      30.22R
LA JOLLA SCRIP   N/A     72  29  20 CALM      30.20R
FALLBROOK        N/A     71  20  14 CALM      30.22R
ESCONDIDO        N/A     67  30  25 CALM      30.21R
SAN MARCOS       N/A     71  27  19 CALM      30.22R
POWAY            N/A    N/A N/A N/A CALM      30.22R

$$

EAST SAN DIEGO COUNTY

CITY           SKY/WX    TMP DP  RH WIND       PRES   REMARKS
RAMONA         SUNNY     76   7   7 E8        30.22R
SANTEE LAKES     N/A     54  27  36 CALM      30.20R
LA MESA          N/A     64  23  21 CALM      30.13R
JAMUL            N/A     69  20  15 CALM      30.21R
DESCANSO N       N/A     65  13  13 NE7       30.16R
MT. LAGUNA OBS   N/A     47   2  15 E16       30.24S

$$

ORANGE COUNTY AND THE LOS ANGELES BASIN

CITY           SKY/WX    TMP DP  RH WIND       PRES   REMARKS
JOHN WAYNE AP  PTSUNNY   64  30  27 CALM      30.20R
LAGUNA BEACH     N/A     55  28  35 CALM      30.15R
LAKE FOREST FR   N/A     69  16  13 CALM      30.07R
HUNTINGTON BCH   N/A     61  34  36 CALM      30.21R
LOS ALAMITOS   MOSUNNY   64  27  24 NW3       30.19R
FULLERTON      SUNNY     74   9   8 NE7       30.19R
LONG BEACH     SUNNY     67  21  17 NW6       30.20R
L.A. AP        PTSUNNY   71  13  10 VRB5      30.21R
L.A. DOWNTOWN  SUNNY     68  13  12 CALM      30.20R

$$

THE INLAND EMPIRE

CITY           SKY/WX    TMP DP  RH WIND       PRES   REMARKS
CORONA         SUNNY     73  10   9 E5        30.23R
CHINO          MOSUNNY   65  31  28 NE3       30.24R
ONTARIO        PTSUNNY   66  12  12 W3        30.23R
SAN BERNARDINO PTSUNNY   64  16  15 CALM      30.24R
RIVERSIDE AP   PTSUNNY   72  11   9 E7        30.23R
MORENO VALLEY    N/A     68  21  16 CALM      28.37R
MARCH ARB      SUNNY     66   3   8 N5        30.25R
HORSETHIEF CYN   N/A     71  -3   5 CALM      30.23R
PERRIS           N/A     59  21  22 CALM      30.21R
HEMET EAST       N/A     60  10  14 CALM      30.28R
FRENCH VALLEY  FAIR      61  12  15 N7        30.25R
TEMECULA         N/A     58  28  32 CALM      30.29R

$$

SAN BERNARDINO AND RIVERSIDE COUNTY MOUNTAINS

CITY           SKY/WX    TMP DP  RH WIND       PRES   REMARKS
BIG BEAR AP    SUNNY     36   1  23 CALM      30.44S
ANGELUS OAKS     N/A     46  12  25 CALM      30.25R

$$

SOUTHERN DESERT INCLUDING THE COACHELLA VALLEY

CITY           SKY/WX    TMP DP  RH WIND       PRES   REMARKS
PALM SPRINGS   SUNNY     69  13  11 SW6       30.27R
THOUSAND PALMS   N/A     61  17  18 N1        30.22R
PALM DESERT      N/A     54  34  46 CALM      32.08S
THERMAL        MOSUNNY   57  21  24 NW3       30.23R
BLYTHE         MOSUNNY   61   6  11 S3        30.28R
IMPERIAL AP    MOSUNNY   62  22  21 W5        30.23R
EL CENTRO NAS  PTSUNNY   63  16  16 W6        30.25R
YUMA AZ        MOSUNNY   66  19  16 NE6       30.23R
MEXICALI       MOSUNNY   54  16  22 NW3       30.24R

$$

UPPER DESERT

CITY           SKY/WX    TMP DP  RH WIND       PRES   REMARKS
HESPERIA         N/A     52   8  17 CALM      30.53R
APPLE VALLEY     N/A     46  10  23 SW1       30.45S
PALMDALE       SUNNY     47   7  19 CALM      30.38R
LANCASTER      SUNNY     40   1  19 CALM      30.40R
EDWARDS AFB    PTSUNNY   37   2  23 SW6       30.37R WCI  32
DAGGETT        MOSUNNY   46   1  15 W3        30.37R
29 PALMS N     MOSUNNY   52  -5   9 NW8       30.42R
NEEDLES        PTSUNNY   61   7  11 N9        30.33R

$$

REGIONAL REPORTS

CITY           SKY/WX    TMP DP  RH WIND       PRES   REMARKS
SANTA BARBARA  MOSUNNY   53  28  38 CALM      30.20R HAZE
SANDBERG       SUNNY     58  -8   6 E23G29    30.38R
LAS VEGAS NV   MOSUNNY   52   1  12 S6        30.41R
PHOENIX AZ     PTSUNNY   68   8   9 E16       30.24R
ENSENADA NW      N/A     74  32  21 CALM      30.10R

$$

OFFSHORE ISLANDS

CITY           SKY/WX    TMP DP  RH WIND       PRES   REMARKS
CATALINA ARPT  SUNNY     72  10   9 NE7       30.26R
SAN CLEMENTE I PTSUNNY   73  19  13 CALM      30.22R
SAN NICOLAS IS MOSUNNY   76  14   9 NW6       30.22R

$$

MARINE AND OFFSHORE BUOY REPORTS

STATION/POSITION SKY/WX   TEMP    WIND        PRES    VSBY  SWELL
                          AIR SEA DIR/SP/G                  HT/PER/DIR
                          (F)     (DEG/KT/KT) (MB)    (MI)  (FT/S/D)
TANNER BANKS               63 62              1022.0
S CLEMENTE BASIN           65 63  350/  6/  6 1021.9          5/270/12
SAN NICOLAS IS.               61                N/A           5/210/14
SO. S. ROSA ISLA           63 60   40/  4/  4 1022.5R         5/190/14
W. S. BARBARA CH           64 60  300/  2/  4 1022.8
M. S. BARBARA CH           65 59  260/  4/  6 1023.5R         3/250/12
S. MONICA BASIN               60  160/  2/  4 1022.3R         3/270/11
S PEDRO CHANNEL               61                N/A           2/260/11
CMP PENDLETON NS              62                N/A           2/220/14
OCEANSIDE OFFSHR              63                N/A           2/210/14
TORREY PINES OTR              63                N/A           3/200/15
SAN DIEGO BAY                 65              1023.0R
POINT LOMA SOUTH              65                N/A           3/200/14

$$





USA.gov is the U.S. government's official web portal to all federal, state and local government web resources and services.